Location: LDNL
(36.4545°S, 141.6685°E)
Time: 10:53:39
(UTC+10:00)

Vanguard 3 - Pass Details

Date: 28 January 2022
Orbit: 508 x 3258 km, 33.3° (Epoch: 25 May)

Event Time Altitude Azimuth Distance (km) Brightness Sun altitude
Rises 04:51:47 0° 263° (W) 5,188 - -19.9°
Exits shadow 04:52:57 - 264° (W) 4,903 10.8 -19.7°
Reaches altitude 10° 04:54:40 10° 265° (W) 4,495 10.5 -19.4°
Maximum altitude 05:08:18 71° 345° (NNW) 2,945 9.7 -17.4°
Drops below altitude 10° 05:28:01 10° 63° (ENE) 6,197 12.0 -14.2°
Sets 05:32:49 0° 65° (ENE) 7,165 12.4 -13.5°
